Location: Morne Emile
(18.0862°N, 63.0610°W)
Time: 18:44:36
(UTC+00:00)

Daily predictions for brighter satellites

Satellite Brightness Start Highest point End
(mag) Time Altitude Azimuth Time Altitude Azimuth Time Altitude Azimuth
Ariane H10+ 4.2 21:48:58 10° SW 21:53:14 35° SSE 22:12:28 10° ESE
Cosmos 2016 Rocket 4.0 22:27:34 10° S 22:33:34 61° E 22:39:32 10° NNE
YAOGAN 1 3.2 22:34:00 10° SE 22:37:53 33° ENE 22:41:46 10° NNE
Centaur Rocket 2.0 22:36:08 10° WSW 22:37:59 46° SSE 22:40:35 10° E
CZ-2D R/B 4.2 22:37:55 10° SE 22:41:11 26° ENE 22:44:27 10° NNE
OAO 3 Copernicus 4.3 22:37:51 10° NW 22:42:51 71° NNE 22:47:52 10° ESE
NOSS 3-1 (C) 3.0 22:38:30 10° SSW 22:43:40 86° ESE 22:49:10 10° NNE
STARLINK-1011 4.5 22:43:16 10° S 22:46:56 31° ESE 22:50:24 11° ENE
Hubble Space Telescope 1.7 22:43:19 10° SW 22:47:07 35° SSE 22:50:30 12° E
Meteor 1-26 Rocket 4.4 22:41:41 10° N 22:47:40 88° E 22:53:34 10° S
Cosmos 1633 3.0 22:44:34 10° SSW 22:48:03 62° W 22:51:34 10° N
Okean-O 3.4 22:44:21 10° S 22:48:41 58° WSW 22:53:03 10° NNW
Cosmos 921 Rocket 3.6 22:46:17 10° SSE 22:50:21 37° E 22:54:29 10° NNE
Cosmos 1633 Rocket 3.6 22:47:01 10° SSE 22:51:00 36° E 22:54:58 10° NNE
Cosmos 1666 Rocket 3.8 22:47:00 10° SSE 22:51:16 48° E 22:55:33 10° NNE
STARLINK-1036 4.3 22:48:06 10° S 22:51:54 36° SE 22:55:11 13° ENE
Cosmos 2233 Rocket 4.4 22:46:52 10° SSE 22:52:29 39° E 22:58:07 10° NNE
Elektron 1 4.3 22:50:21 10° SSW 22:53:23 63° ESE 22:58:26 10° NNE
Ariane Rocket 4.3 22:51:29 10° ESE 22:54:45 17° ENE 22:58:00 10° NNE
STARLINK-1044 4.1 22:52:57 10° SSW 22:56:51 41° SE 22:59:58 15° ENE
SEDSat Delta rocket 4.4 22:54:12 10° NW 22:57:26 22° NNE 22:59:48 15° ENE
Cosmos 1340 4.1 22:57:52 10° SE 23:00:25 17° E 23:00:32 17° E
Cosmos 1943 Rocket 2.1 22:55:32 10° S 23:01:06 67° ESE 23:06:38 10° NNE
Aureole 2 Rocket 2.9 23:00:07 10° SSE 23:02:22 24° ESE 23:02:34 23° E
Starlink-5 full stack 4.4 23:02:23 10° N 23:03:46 16° NE 23:03:46 16° NE
USA 267 3.8 22:58:24 10° NNE 23:04:45 57° NW 23:11:08 10° SW
Starlink-5 placeholder 4.4 23:02:53 10° N 23:04:09 16° NNE 23:04:09 16° NNE
STARLINK-1037 3.7 23:02:44 10° SSW 23:06:47 56° SE 23:09:33 19° NE
Gbstr 26 Del rocket 4.3 23:05:49 10° SSE 23:08:26 18° ESE 23:08:46 18° ESE
STARLINK-1059 3.6 23:07:39 10° SSW 23:11:45 65° SE 23:14:19 21° NE
NOSS 2-3 (E) 3.4 23:10:44 10° SSW 23:14:56 63° ESE 23:18:00 18° NE
Lacrosse 4 Rocket 4.3 23:14:22 10° W 23:16:37 14° WNW 23:18:52 10° NNW
STARLINK-1057 3.5 23:12:37 10° SSW 23:16:44 76° SE 23:19:08 24° NE
STARLINK-1035 3.7 23:13:56 10° SW 23:18:10 84° NW 23:21:01 20° NE
Cosmos 2369 Rocket 2.1 23:15:01 10° SSW 23:20:35 79° ESE 23:26:14 10° NNE
STARLINK-1034 3.5 23:17:33 10° SW 23:21:41 87° ESE 23:23:54 26° NE
GPS 2-15 Rocket1 3.1 23:18:12 10° W 23:22:55 73° N 23:24:57 34° E
CZ-3A R/B 4.1 22:52:55 10° SW 23:23:19 42° S 23:28:14 21° ESE
Cosmos 968 Rocket 3.4 23:19:19 10° N 23:24:28 66° ENE 23:29:39 10° SSE
Sakura Rocket 3.3 23:19:02 10° WNW 23:25:15 89° SSW 23:27:36 30° ESE
Meteor 1-27 Rocket 4.3 23:20:55 10° NNE 23:25:51 32° E 23:30:49 10° SE
STARLINK-1068 3.6 23:22:32 10° SW 23:26:39 81° NW 23:28:41 29° NNE
STARLINK-67 3.6 23:25:01 10° NNW 23:26:33 33° NNW 23:26:33 33° NNW
STARLINK-1027 4.2 23:24:36 10° SW 23:28:46 56° NW 23:31:24 21° NNE
NOSS 2-3 (D) 3.4 23:25:17 10° SSW 23:29:33 89° W 23:31:58 25° NNE
Cosmos 2263 4.2 23:24:01 10° S 23:29:42 64° ESE 23:34:30 15° NNE
Cosmos 1470 Rocket 3.4 23:26:43 10° S 23:30:58 61° E 23:34:05 18° NNE
CZ-2C R/B 3.8 23:30:53 27° NE 23:33:07 51° E 23:37:42 10° S
Centaur AC-42 3.6 23:08:52 10° WSW 23:33:58 47° S 23:37:02 28° ESE
Cosmos 1503 Rocket 3.8 23:30:39 10° N 23:35:53 69° ENE 23:41:02 10° SSE
STARLINK-1047 4.1 23:32:17 10° SW 23:36:22 58° NW 23:38:10 30° NNE
STARLINK-1060 4.0 23:32:31 10° SW 23:36:35 60° NW 23:38:15 33° NNE
NOSS 3-1 (A) 3.8 23:32:22 10° SW 23:37:24 51° WNW 23:42:48 10° NNE
Cosmos 2082 Rocket 2.3 23:35:23 10° NNW 23:41:01 76° WSW 23:46:41 10° S
STARLINK-1030 4.3 23:37:31 10° SW 23:41:32 52° NW 23:43:01 33° N
SJ-11-01 4.2 23:38:20 10° SSE 23:42:57 60° ENE 23:47:33 10° N
CRYOSAT 2 4.5 23:38:39 10° S 23:43:31 75° W 23:48:23 10° N
Cosmos 1656 Rocket 3.6 23:43:16 10° S 23:48:33 56° ESE 23:48:49 56° E
Cosmos 1464 Rocket 4.3 23:43:49 10° SSE 23:48:54 42° ESE 23:48:54 42° ESE
Delta 198 4.3 23:45:33 10° W 23:50:10 40° N 23:50:25 39° N
ATLAS 5 CENTAUR R/B 4.1 23:46:29 10° NW 23:52:30 37° WSW 23:58:56 10° S
